This is the latest recevied weather packets stored in our database for station/object KB1FFS. If no packets are shown the sender has not sent any weather packets the latest 10 day(s).
| Time | Temp. | Humidity | Pressure | Rain* | Wind** | Luminosity | Snow |
|---|---|---|---|---|---|---|---|
| 1788030040 | 40° C | 32% | 1017.7 hPa | 0 mm | - | 786 W/m² | - |
| 1788029734 | 40° C | 31% | 1017.7 hPa | 0 mm | - | 785 W/m² | - |
| 1788029429 | 39.44° C | 32% | 1017.7 hPa | 0 mm | - | 783 W/m² | - |
| 1788029128 | 39.44° C | 33% | 1017.8 hPa | 0 mm | - | 784 W/m² | - |
| 1788028827 | 39.44° C | 36% | 1017.6 hPa | 0 mm | - | 787 W/m² | - |
| 1788028522 | 38.89° C | 36% | 1017.8 hPa | 0 mm | - | 808 W/m² | - |
| 1788028218 | 38.89° C | 34% | 1017.9 hPa | 0 mm | - | 790 W/m² | - |
| 1788027914 | 38.89° C | 36% | 1017.9 hPa | 0 mm | - | 779 W/m² | - |
| 1788027613 | 38.89° C | 36% | 1018.1 hPa | 0 mm | - | 775 W/m² | - |
| 1788027308 | 38.89° C | 37% | 1018 hPa | 0 mm | - | 773 W/m² | - |
| 1788027002 | 38.89° C | 36% | 1018.2 hPa | 0 mm | - | 767 W/m² | - |
| 1788026702 | 38.89° C | 36% | 1018.1 hPa | 0 mm | - | 765 W/m² | - |
| 1788026093 | 38.89° C | 36% | 1018.4 hPa | 0 mm | - | 761 W/m² | - |
| 1788025791 | 38.33° C | 37% | 1018.3 hPa | 0 mm | - | 756 W/m² | - |
| 1788025491 | 38.33° C | 37% | 1018.4 hPa | 0 mm | - | 753 W/m² | - |
| 1788025187 | 37.78° C | 39% | 1018.5 hPa | 0 mm | - | 748 W/m² | - |
| 1788024887 | 38.33° C | 37% | 1018.8 hPa | 0 mm | - | 743 W/m² | - |
| 1788024583 | 38.33° C | 37% | 1018.4 hPa | 0 mm | - | 736 W/m² | - |
| 1788024283 | 38.33° C | 38% | 1018.5 hPa | 0 mm | - | 731 W/m² | - |
| 1788023978 | 38.33° C | 36% | 1018.5 hPa | 0 mm | - | 725 W/m² | - |
| 1788023673 | 37.78° C | 38% | 1018.8 hPa | 0 mm | - | 718 W/m² | - |
| 1788023370 | 37.22° C | 39% | 1018.7 hPa | 0 mm | - | 713 W/m² | - |
| 1788023069 | 37.22° C | 39% | 1019 hPa | 0 mm | - | 705 W/m² | - |
| 1788022767 | 36.67° C | 41% | 1018.9 hPa | 0 mm | - | 695 W/m² | - |
| 1788022466 | 36.67° C | 39% | 1018.9 hPa | 0 mm | - | 688 W/m² | - |
* Rain latest hour (hover to see other rain measurements)
** Current wind speed in m/s (hover to see current wind gust speed)